Tracking 30262 objects as of 17-Feb-2025
HD Live streaming from Space Station
objects crossing your sky now

TIANHUI 2-02B

Track TIANHUI 2-02B now!
10-day predictions


NORAD ID: 49072
Int'l Code: 2021-074B
Perigee: 521.6 km
Apogee: 523.9 km
Inclination: 97.5 °
Period: 94.9 minutes
Semi major axis: 6893 km
RCS: Unknown
Launch date: August 18, 2021
Source: People's Republic of China (PRC)
Launch site: Taiyaun Space Center, China (TSC)
Your satellite tracking list
Your tracking list is empty




NASA's NSSDC Master Catalog

Two Line Element Set (TLE):
1 49072U 21074B   25047.57339922  .00004304  00000-0  22267-3 0  9997
2 49072  97.4745  52.4451 0001667  84.8454 275.2970 15.16767460193664
Source of the keplerian elements: AFSPC